DELTA 1 DEB, 18232

Orbit data source: Space-Track

DELTA 1 DEB, 18232 is space debris in SSO originally from a launch on Thu, 29 Jul 1976 UTC launched from the Air Force Western Test Range (AFWTR). Debris objects in space refer to the collection of defunct objects orbiting the Earth. Examples of debris include non-operational satellites, rocket bodies, and fragments generated from explosions, collisions, or faulty payload assembly.

Loading next visibility...
Identifier
18232, 1976-077EY
Orbit
SSO
Country
Flag of USUS
Related business
Manufacturer
Unknown
Mission
Spacecraft
Bus & Motor
Unknown
Mass
Unknown
Launch date (UTC)
1976-07-29 (50 years ago)
Launch vehicle
Unknown
Launch site
Air Force Western Test Range (AFWTR)
Object type
Payload
Rocket body
Debris
Shape & HBR
Unknown shape, 0.1 m
Radar Cross Section
Small (<0.1 m²)

Expand to show TLE details & history
Last TLE update: 8 hours ago

TLE from 8 hours ago
0 DELTA 1 DEB
1 18232U 76077EY  26127.87913027  .00004850  00000-0  28050-2 0  9992
2 18232 102.9134 352.2315 0197191  80.8812  45.9649 14.00411677 22398
Epoch: 2026-05-07T21:05Z
TLE epoch observation values (Epoch: 2026-05-07T21:05:56.855Z)
Latitude
49.81829°
Longitude
5.69244°
Altitude
801.897 km
Speed
7.508 km/s
True Right ascension
12h 31m 35s
True Declination
49° 38' 59"
Sunlit
Object was in daylight at epoch
Visualization orbit readout
Latitude
Unknown
Longitude
Unknown
Altitude
Unknown
Speed
Unknown
Apparent Right ascension
Unknown
Apparent Declination
Unknown
Sunlit
N/A
Visualization observer readout
Local Sidereal Time
13:25:46
Azimuth
Unknown
Elevation
Unknown
Doppler factor
Unknown
Orbital elements
Apogee altitude
1,033.116 km
Perigee altitude
746.481 km
Semi-major axis
7,267.936 km
Eccentricity
0.01972
Inclination
102.9134°
RAAN
352.2315°
Arg. of periapsis
80.8812°
True anomaly
47.61746°
Mean anomaly
45.9649°
Eccentric anomaly
46.78835°
Mean motion
3.50289 °/min
Orbital period
102.77 mins
BSTAR
0.002805
Loading maneuver chart data...
Computing Atmospheric mass density...
Loading historical data...
Loading historical data...
Loading historical data...
Loading historical data...
Loading historical data...
Loading historical data...
Loading historical data...

Documentation

Showing up to 5 results
|